User: anonymous   Login
Location: Vibo Valentia
(38.6670°N, 16.1000°E)
Time: 15:53:28
(UTC+01:00)
Language:

STARLINK-1368 - Orbit

View from above orbital plane
View from above orbital plane
View from above satellite
View from above satellite

Ground track
Ground track

The orbit data is extracted from the following two-line orbital elements,

1 45540C 20025K   21020.45017383 -.00011719  00000-0 -78540-3 0   206
2 45540  53.0326 240.3783 0001471  28.0271  38.1528 15.06398796    11
Epoch (UTC): 20 January 2021 10:48:15
Eccentricity: 0.0001471
inclination: 53.0326°
perigee height: 546 km
apogee height: 548 km
right ascension of ascending node: 240.3783°
argument of perigee: 28.0271°
revolutions per day: 15.06398796
mean anomaly at epoch: 38.1528°
orbit number at epoch: 1

The dashed part of the orbit path shows where the satellite is in the earth's shadow,  

DLR